Weather History for KMRB - March, 2013

Change the Weather History Date:

Tuesday, March 26, 2013

  Actual Average Record
Temperature  
Mean Temperature 41 °F 46 °F  
Max Temperature 49 °F 56 °F 86 °F (1939)
Min Temperature 33 °F 35 °F 17 °F (1940)
Degree Days  
Heating Degree Days 24 20  
Month to date heating degree days 666 622  
Since 1 July heating degree days 4301 4578  
Cooling Degree Days 0 0  
Month to date cooling degree days 0 0  
Year to date cooling degree days 0 0  
Moisture  
Dew Point 29 °F    
Average Humidity 64    
Maximum Humidity 89    
Minimum Humidity 39    
Precipitation  
Precipitation 0.02 in 0.13 in 1.23 in (1978)
Month to date precipitation 2.02 2.90  
Year to date precipitation 6.84 7.68  
Sea Level Pressure  
Sea Level Pressure 29.84 in    
Wind  
Wind Speed 9 mph (NW)    
Max Wind Speed 22 mph    
Max Gust Speed 28 mph    
Visibility 9 miles    
Events Snow    
T = Trace of Precipitation, MM = Missing Value Source: NWS Daily Summary

Daily Weather History Graph

Daily Weather History Graph

Search for Another Location

Airport or City:

Trip Planner

Search our weather history database for the weather conditions in past years. The results will help you decide how hot, cold, wet, or windy it might be!

Date:

Astronomy

Mar. 26, 2013 Rise Set
Actual Time 7:05 AM EDT 7:30 PM EDT
Civil Twilight 6:38 AM EDT 7:57 PM EDT
Nautical Twilight 6:07 AM EDT 8:28 PM EDT
Astronomical Twilight 5:34 AM EDT 9:01 PM EDT
Moon 7:04 PM EDT (3/26) 6:20 AM EDT (3/26)
Length of Visible Light 13h 18m
Length of Day
12h 24m
Waxing Gibbous, 99% of the Moon is Illuminated
Mar 26
Waxing Gibbous
Mar 27
Full
Apr 3
Last Quarter
Apr 10
New
Apr 18
First Quarter

Hourly Weather History & Observations

Time (EDT) Temp. Windchill Dew Point Humidity Pressure Visibility Wind Dir Wind Speed Gust Speed Precip Events Conditions
12:07 AM 33.8 °F 28.6 °F 32.0 °F 93% 29.71 in 2.0 mi WSW 5.8 mph - 0.00 in Snow Light Snow
12:34 AM 33.8 °F 30.8 °F 32.0 °F 93% 29.71 in 2.0 mi WSW 3.5 mph - 0.00 in Snow Light Snow
12:51 AM 33.8 °F - 32.0 °F 93% 29.72 in 3.0 mi Calm Calm - 0.01 in   Overcast
12:53 AM 34.0 °F - 32.0 °F 92% 29.73 in 4.0 mi Calm Calm - 0.01 in   Overcast
1:32 AM 35.6 °F 31.7 °F 32.0 °F 87% 29.73 in 7.0 mi NW 4.6 mph - 0.00 in Snow Light Snow
1:53 AM 35.1 °F 29.3 °F 30.9 °F 85% 29.75 in 10.0 mi WNW 6.9 mph - 0.00 in   Overcast
2:04 AM 35.6 °F 29.9 °F 30.2 °F 81% 29.74 in 6.0 mi WNW 6.9 mph - 0.01 in Snow Light Snow
2:22 AM 35.6 °F 31.7 °F 30.2 °F 81% 29.74 in 9.0 mi WNW 4.6 mph - 0.01 in Snow Light Snow
2:53 AM 35.1 °F 31.0 °F 32.0 °F 89% 29.76 in 10.0 mi NW 4.6 mph - 0.02 in   Overcast
3:22 AM 35.6 °F - 32.0 °F 87% 29.75 in 10.0 mi Calm Calm - N/A   Overcast
3:48 AM 33.8 °F - 30.2 °F 87% 29.75 in 10.0 mi Calm Calm - N/A   Overcast
3:53 AM 34.0 °F - 30.9 °F 89% 29.77 in 10.0 mi Calm Calm - N/A   Overcast
4:53 AM 35.1 °F 31.0 °F 30.9 °F 85% 29.77 in 10.0 mi WNW 4.6 mph - N/A   Mostly Cloudy
5:53 AM 34.0 °F 31.0 °F 30.0 °F 85% 29.79 in 9.0 mi NNW 3.5 mph - N/A   Mostly Cloudy
6:53 AM 34.0 °F - 28.9 °F 82% 29.81 in 10.0 mi Calm Calm - N/A   Clear
7:53 AM 34.0 °F 28.8 °F 28.0 °F 79% 29.84 in 10.0 mi WNW 5.8 mph - N/A   Partly Cloudy
8:53 AM 37.9 °F 33.5 °F 30.0 °F 73% 29.86 in 10.0 mi NNW 5.8 mph - N/A   Clear
9:53 AM 39.9 °F 33.9 °F 30.0 °F 68% 29.87 in 10.0 mi NNW 9.2 mph - N/A   Partly Cloudy
10:53 AM 39.9 °F 32.1 °F 26.1 °F 58% 29.89 in 10.0 mi NW 13.8 mph - N/A   Partly Cloudy
11:53 AM 39.9 °F 31.4 °F 25.0 °F 55% 29.91 in 10.0 mi NW 16.1 mph - N/A   Mostly Cloudy
12:53 PM 44.1 °F 36.8 °F 26.1 °F 49% 29.90 in 10.0 mi NNW 16.1 mph 21.9 mph N/A   Partly Cloudy
2:53 PM 48.0 °F - 24.1 °F 39% 29.88 in 10.0 mi NW 9.2 mph 20.7 mph N/A   Partly Cloudy
3:53 PM 46.9 °F - 26.1 °F 44% 29.88 in 10.0 mi NNW 18.4 mph 27.6 mph N/A   Overcast
4:53 PM 46.0 °F 40.6 °F 26.1 °F 46% 29.89 in 10.0 mi NNW 11.5 mph 20.7 mph N/A   Mostly Cloudy
5:53 PM 46.9 °F - 25.0 °F 42% 29.90 in 10.0 mi NW 9.2 mph - N/A   Overcast
6:53 PM 46.0 °F 40.6 °F 24.1 °F 42% 29.92 in 10.0 mi WNW 11.5 mph 20.7 mph N/A   Overcast
7:53 PM 44.1 °F 39.5 °F 24.1 °F 45% 29.96 in 10.0 mi WNW 8.1 mph - N/A   Overcast
8:53 PM 42.1 °F 35.7 °F 25.0 °F 51% 29.98 in 10.0 mi WNW 11.5 mph 17.3 mph N/A   Mostly Cloudy
9:53 PM 42.1 °F 34.5 °F 26.1 °F 53% 30.00 in 10.0 mi WNW 15.0 mph 25.3 mph N/A   Mostly Cloudy
10:53 PM 41.0 °F 33.1 °F 27.0 °F 57% 30.01 in 10.0 mi WNW 15.0 mph - N/A   Overcast
11:53 PM 41.0 °F 37.1 °F 27.0 °F 57% 30.02 in 10.0 mi Variable 5.8 mph - N/A   Overcast